Modesto, CA

7:16 PM PDT on June 23, 2017 (GMT -0700)
Modesto City-County-Sham

Weather History for KMOD - January, 2013

Change the Weather History Date:

Thursday, January 24, 2013

  Actual Average Record
Temperature  
Mean Temperature 51 °F -  
Max Temperature 54 °F 57 °F 73 °F (2014)
Min Temperature 48 °F 41 °F 21 °F (1937)
Degree Days  
Heating Degree Days 14 16  
Month to date heating degree days 516 424  
Since 1 July heating degree days 1378 1321  
Cooling Degree Days 0 0  
Month to date cooling degree days 0 0  
Year to date cooling degree days 0 0  
Growing Degree Days 1 (Base 50)    
Moisture  
Dew Point 49 °F    
Average Humidity 95    
Maximum Humidity 100    
Minimum Humidity 89    
Precipitation  
Precipitation 0.03 in 0.08 in 1.04 in (1967)
Month to date precipitation 1.16 1.99  
Year to date precipitation 1.16 1.99  
Since 1 July precipitation 7.04  
Snow  
Snow 0.00 in - 0.00 in (2002)
Month to date snowfall 0.0  
Since 1 July snowfall 0.0  
Snow Depth -    
Sea Level Pressure  
Sea Level Pressure 30.14 in    
Wind  
Wind Speed 6 mph (NW)    
Max Wind Speed 13 mph    
Max Gust Speed 16 mph    
Visibility 2 miles    
Events Fog , Rain    
T = Trace of Precipitation, MM = Missing Value Source: NWS Daily Summary

Daily Weather History Graph

Daily Weather History Graph

Search for Another Location

Airport or City:

Trip Planner

Search our weather history database for the weather conditions in past years. The results will help you decide how hot, cold, wet, or windy it might be!

Date:

Astronomy

Jan. 24, 2013 Rise Set
Actual Time 7:13 AM PST 5:19 PM PST
Civil Twilight 6:45 AM PST 5:47 PM PST
Nautical Twilight 6:13 AM PST 6:19 PM PST
Astronomical Twilight 5:42 AM PST 6:50 PM PST
Moon 3:26 PM PST 5:13 AM PST
Length of Visible Light 11h 02m
Length of Day
10h 06m
Waxing Gibbous, 95% of the Moon is Illuminated
Jan 24
Waxing Gibbous
Jan 26
Full
Feb 3
Last Quarter
Feb 9
New
Feb 17
First Quarter

Hourly Weather History & Observations

Time (PST) Temp. Dew Point Humidity Pressure Visibility Wind Dir Wind Speed Gust Speed Precip Events Conditions
12:53 AM 48.9 °F 46.9 °F 93% 30.09 in 3.0 mi WNW 9.2 mph - N/A   Overcast
1:18 AM 48.2 °F 46.4 °F 93% 30.09 in 2.5 mi WNW 9.2 mph - N/A   Overcast
1:32 AM 48.2 °F 46.4 °F 93% 30.08 in 2.5 mi NW 9.2 mph - N/A   Overcast
1:53 AM 48.0 °F 46.9 °F 96% 30.09 in 2.0 mi NW 8.1 mph - N/A   Overcast
2:53 AM 48.0 °F 46.9 °F 96% 30.08 in 3.0 mi NNW 5.8 mph - N/A   Overcast
3:53 AM 48.0 °F 46.0 °F 93% 30.08 in 3.0 mi WNW 10.4 mph - N/A   Overcast
4:23 AM 48.2 °F 46.4 °F 93% 30.07 in 2.5 mi WNW 8.1 mph - N/A   Overcast
4:46 AM 48.2 °F 46.4 °F 93% 30.09 in 2.0 mi NW 8.1 mph - N/A   Overcast
4:53 AM 48.0 °F 46.9 °F 96% 30.10 in 2.0 mi NNW 10.4 mph - N/A   Overcast
5:31 AM 48.2 °F 46.4 °F 93% 30.10 in 1.8 mi WNW 8.1 mph - N/A   Overcast
5:38 AM 48.2 °F 46.4 °F 93% 30.10 in 2.0 mi NW 9.2 mph - N/A   Overcast
5:53 AM 48.0 °F 46.9 °F 96% 30.10 in 2.0 mi WNW 8.1 mph - N/A   Overcast
6:00 AM 48.2 °F 46.4 °F 93% 30.10 in 1.8 mi WNW 8.1 mph - N/A   Overcast
6:53 AM 48.0 °F 46.9 °F 96% 30.12 in 1.2 mi NW 6.9 mph - N/A   Overcast
7:12 AM 48.2 °F 46.4 °F 93% 30.12 in 0.5 mi NW 6.9 mph - 0.00 in Fog , Rain Light Rain
7:53 AM 48.0 °F 48.0 °F 100% 30.13 in 0.5 mi WNW 3.5 mph - 0.01 in Fog , Rain Light Rain
8:19 AM 48.2 °F 48.2 °F 100% 30.13 in 1.0 mi NNW 5.8 mph - 0.00 in Rain Light Rain
8:53 AM 48.9 °F 48.0 °F 97% 30.14 in 1.0 mi NW 6.9 mph - 0.01 in Rain Light Rain
9:15 AM 48.2 °F 48.2 °F 100% 30.14 in 2.0 mi NW 5.8 mph - 0.01 in Rain Light Rain
9:20 AM 48.2 °F 48.2 °F 100% 30.15 in 2.0 mi NW 5.8 mph - 0.01 in Rain Light Rain
9:53 AM 51.1 °F 48.9 °F 92% 30.16 in 2.0 mi NW 9.2 mph - 0.01 in   Overcast
10:00 AM 51.8 °F 48.2 °F 88% 30.16 in 4.0 mi NNW 6.9 mph - N/A   Mostly Cloudy
10:38 AM 51.8 °F 48.2 °F 88% 30.17 in 4.0 mi NNW 5.8 mph - N/A   Overcast
10:53 AM 51.1 °F 48.9 °F 92% 30.17 in 4.0 mi NW 4.6 mph - N/A   Overcast
11:53 AM 52.0 °F 48.9 °F 89% 30.17 in 2.5 mi NNW 3.5 mph - 0.00 in Rain Light Rain
12:00 PM 51.8 °F 48.2 °F 88% 30.16 in 3.0 mi NNW 4.6 mph - 0.00 in Rain Light Rain
12:53 PM 53.1 °F 48.9 °F 86% 30.16 in 5.0 mi North 4.6 mph - 0.00 in   Overcast
1:53 PM 54.0 °F 50.0 °F 86% 30.14 in 4.0 mi North 3.5 mph - N/A   Overcast
2:45 PM 53.6 °F 50.0 °F 88% 30.14 in 5.0 mi Calm Calm - N/A   Overcast
2:53 PM 54.0 °F 50.0 °F 86% 30.14 in 4.0 mi Calm Calm - N/A   Overcast
3:53 PM 53.1 °F 51.1 °F 93% 30.14 in 4.0 mi NW 3.5 mph - 0.00 in Rain Light Rain
4:38 PM 53.6 °F 51.8 °F 94% 30.15 in 2.5 mi Calm Calm - 0.00 in Rain Light Rain
4:50 PM 53.6 °F 51.8 °F 94% 30.15 in 1.5 mi Calm Calm - 0.02 in Rain Rain
4:53 PM 53.1 °F 51.1 °F 93% 30.15 in 1.2 mi Calm Calm - 0.02 in Rain Light Rain
5:03 PM 51.8 °F 51.8 °F 100% 30.15 in 1.2 mi WNW 3.5 mph - 0.01 in Rain Light Rain
5:14 PM 51.8 °F 51.8 °F 100% 30.15 in 2.0 mi West 4.6 mph - 0.02 in Rain Light Rain
5:36 PM 51.8 °F 51.8 °F 100% 30.16 in 3.0 mi West 5.8 mph - 0.02 in   Overcast
5:50 PM 51.8 °F 51.8 °F 100% 30.16 in 2.5 mi West 6.9 mph - 0.04 in Rain Rain
5:53 PM 52.0 °F 51.1 °F 97% 30.16 in 2.0 mi WNW 6.9 mph - 0.04 in Rain Rain
5:59 PM 51.8 °F 51.8 °F 100% 30.16 in 2.0 mi WNW 6.9 mph - 0.02 in Rain Rain
6:53 PM 51.1 °F 51.1 °F 100% 30.17 in 2.5 mi WNW 4.6 mph - 0.04 in   Overcast
7:13 PM 51.8 °F 51.8 °F 100% 30.17 in 2.5 mi Calm Calm - 0.00 in Rain Light Rain
7:23 PM 51.8 °F 51.8 °F 100% 30.17 in 3.0 mi NW 4.6 mph - 0.00 in Rain Light Rain
7:38 PM 51.8 °F 51.8 °F 100% 30.17 in 3.0 mi Calm Calm - 0.00 in   Overcast
7:53 PM 51.1 °F 51.1 °F 100% 30.18 in 3.0 mi Calm Calm - 0.00 in   Overcast
8:02 PM 51.8 °F 51.8 °F 100% 30.18 in 3.0 mi Calm Calm - N/A   Overcast
8:22 PM 51.8 °F 51.8 °F 100% 30.18 in 2.0 mi Calm Calm - N/A   Overcast
8:53 PM 51.1 °F 51.1 °F 100% 30.19 in 2.5 mi West 3.5 mph - 0.00 in Rain Light Rain
9:53 PM 51.1 °F 51.1 °F 100% 30.19 in 2.5 mi NNW 4.6 mph - 0.01 in   Overcast
10:00 PM 51.8 °F 51.8 °F 100% 30.19 in 3.0 mi NNW 3.5 mph - N/A   Overcast
10:53 PM 51.1 °F 51.1 °F 100% 30.20 in 3.0 mi North 3.5 mph - N/A   Overcast
11:15 PM 51.8 °F 51.8 °F 100% 30.20 in 2.5 mi Calm Calm - N/A   Overcast
11:53 PM 51.1 °F 51.1 °F 100% 30.19 in 2.5 mi NNW 3.5 mph - N/A   Overcast